Year,Month,Day,Hour,Minute,Value (Times are PST for temperature in C)
2016,03,29,00,00,4.40
2016,03,29,00,01,4.40
2016,03,29,00,02,4.40
2016,03,29,00,03,4.40
2016,03,29,00,04,4.30
2016,03,29,00,05,4.30
2016,03,29,00,06,4.30
2016,03,29,00,07,4.30
2016,03,29,00,08,4.30
2016,03,29,00,09,4.20
2016,03,29,00,10,4.20
2016,03,29,00,11,4.20
2016,03,29,00,12,4.20
2016,03,29,00,17,4.20
2016,03,29,00,18,4.20
2016,03,29,00,19,4.20
2016,03,29,00,20,4.20
2016,03,29,00,21,4.20
2016,03,29,00,22,4.20
2016,03,29,00,23,4.20
2016,03,29,00,24,4.10
2016,03,29,00,25,4.10
2016,03,29,00,26,4.10
2016,03,29,00,27,4.10
2016,03,29,00,28,4.10
2016,03,29,00,29,4.00
2016,03,29,00,30,4.00
2016,03,29,00,31,4.00
2016,03,29,00,32,4.00
2016,03,29,00,33,4.00
2016,03,29,00,34,4.00
2016,03,29,00,35,4.00
2016,03,29,00,36,4.10
2016,03,29,00,37,4.10
2016,03,29,00,38,4.10
2016,03,29,00,39,4.10
2016,03,29,00,40,4.10
2016,03,29,00,41,4.10
2016,03,29,00,42,4.00
2016,03,29,00,43,4.00
2016,03,29,00,44,3.90
2016,03,29,00,45,3.90
2016,03,29,00,46,3.90
2016,03,29,00,47,3.90
2016,03,29,00,48,3.80
2016,03,29,00,49,3.80
2016,03,29,00,50,3.80
2016,03,29,00,51,3.80
2016,03,29,00,52,3.80
2016,03,29,00,53,3.80
2016,03,29,00,54,3.80
2016,03,29,00,55,3.80
2016,03,29,00,56,3.80
2016,03,29,00,57,3.80
2016,03,29,00,58,3.80
2016,03,29,00,59,3.80
2016,03,29,01,00,3.70
2016,03,29,01,01,3.70
2016,03,29,01,02,3.70
2016,03,29,01,03,3.70
2016,03,29,01,04,3.70
2016,03,29,01,05,3.70
2016,03,29,01,06,3.60
2016,03,29,01,07,3.60
2016,03,29,01,08,3.60
2016,03,29,01,09,3.60
2016,03,29,01,10,3.60
2016,03,29,01,11,3.60
2016,03,29,01,12,3.50
2016,03,29,01,13,3.50
2016,03,29,01,14,3.50
2016,03,29,01,15,3.50
2016,03,29,01,16,3.40
2016,03,29,01,17,3.40
2016,03,29,01,18,3.40
2016,03,29,01,19,3.40
2016,03,29,01,20,3.40
2016,03,29,01,21,3.40
2016,03,29,01,22,3.40
2016,03,29,01,23,3.40
2016,03,29,01,24,3.40
2016,03,29,01,25,3.40
2016,03,29,01,26,3.50
2016,03,29,01,27,3.50
2016,03,29,01,28,3.50
2016,03,29,01,29,3.50
2016,03,29,01,30,3.50
2016,03,29,01,31,3.50
2016,03,29,01,32,3.50
2016,03,29,01,33,3.50
2016,03,29,01,34,3.50
2016,03,29,01,35,3.50
2016,03,29,01,36,3.50
2016,03,29,01,37,3.40
2016,03,29,01,38,3.40
2016,03,29,01,39,3.40
2016,03,29,01,40,3.40
2016,03,29,01,41,3.40
2016,03,29,01,42,3.40
2016,03,29,01,43,3.30
2016,03,29,01,44,3.30
2016,03,29,01,45,3.30
2016,03,29,01,46,3.30
2016,03,29,01,47,3.30
2016,03,29,01,48,3.30
2016,03,29,01,49,3.20
2016,03,29,01,50,3.20
2016,03,29,01,51,3.20
2016,03,29,01,52,3.20
2016,03,29,01,53,3.20
2016,03,29,01,54,3.20
2016,03,29,01,55,3.20
2016,03,29,01,56,3.20
2016,03,29,01,57,3.20
2016,03,29,01,58,3.10
2016,03,29,01,59,3.10
2016,03,29,02,00,3.10
2016,03,29,02,01,3.10
2016,03,29,02,02,3.10
2016,03,29,02,03,3.00
2016,03,29,02,04,3.00
2016,03,29,02,05,3.00
2016,03,29,02,06,3.00
2016,03,29,02,07,3.00
2016,03,29,02,08,3.00
2016,03,29,02,09,3.00
2016,03,29,02,10,3.00
2016,03,29,02,11,3.00
2016,03,29,02,12,2.90
2016,03,29,02,13,2.90
2016,03,29,02,14,2.90
2016,03,29,02,15,2.90
2016,03,29,02,16,3.00
2016,03,29,02,17,3.00
2016,03,29,02,18,2.90
2016,03,29,02,19,2.90
2016,03,29,02,20,2.90
2016,03,29,02,21,2.90
2016,03,29,02,22,3.00
2016,03,29,02,23,2.90
2016,03,29,02,24,2.90
2016,03,29,02,25,2.90
2016,03,29,02,26,2.90
2016,03,29,02,27,2.90
2016,03,29,02,28,2.90
2016,03,29,02,29,2.90
2016,03,29,02,30,2.90
2016,03,29,02,31,2.90
2016,03,29,02,32,2.80
2016,03,29,02,33,2.80
2016,03,29,02,34,2.80
2016,03,29,02,35,2.80
2016,03,29,02,36,2.80
2016,03,29,02,37,2.80
2016,03,29,02,38,2.80
2016,03,29,02,39,2.80
2016,03,29,02,40,2.90
2016,03,29,02,41,2.90
2016,03,29,02,42,2.90
2016,03,29,02,43,2.90
2016,03,29,02,44,2.90
2016,03,29,02,45,2.90
2016,03,29,02,46,2.90
2016,03,29,02,47,2.80
2016,03,29,02,48,2.80
2016,03,29,02,49,2.80
2016,03,29,02,50,2.80
2016,03,29,02,51,2.70
2016,03,29,02,52,2.70
2016,03,29,02,53,2.70
2016,03,29,02,54,2.70
2016,03,29,02,55,2.70
2016,03,29,02,56,2.70
2016,03,29,02,57,2.80
2016,03,29,02,58,2.80
2016,03,29,02,59,2.80
2016,03,29,03,00,2.80
2016,03,29,03,01,2.80
2016,03,29,03,02,2.70
2016,03,29,03,03,2.70
2016,03,29,03,04,2.70
2016,03,29,03,05,2.70
2016,03,29,03,06,2.70
2016,03,29,03,07,2.70
2016,03,29,03,08,2.70
2016,03,29,03,09,2.60
2016,03,29,03,10,2.60
2016,03,29,03,11,2.60
2016,03,29,03,12,2.60
2016,03,29,03,13,2.60
2016,03,29,03,14,2.60
2016,03,29,03,15,2.60
2016,03,29,03,16,2.60
2016,03,29,03,17,2.60
2016,03,29,03,18,2.50
2016,03,29,03,19,2.50
2016,03,29,03,20,2.50
2016,03,29,03,21,2.50
2016,03,29,03,22,2.50
2016,03,29,03,23,2.50
2016,03,29,03,24,2.40
2016,03,29,03,25,2.40
2016,03,29,03,26,2.40
2016,03,29,03,27,2.50
2016,03,29,03,28,2.50
2016,03,29,03,29,2.50
2016,03,29,03,30,2.50
2016,03,29,03,31,2.50
2016,03,29,03,32,2.50
2016,03,29,03,33,2.60
2016,03,29,03,34,2.60
2016,03,29,03,35,2.60
2016,03,29,03,36,2.60
2016,03,29,03,37,2.60
2016,03,29,03,38,2.70
2016,03,29,03,39,2.70
2016,03,29,03,40,2.70
2016,03,29,03,41,2.60
2016,03,29,03,42,2.60
2016,03,29,03,43,2.60
2016,03,29,03,44,2.60
2016,03,29,03,45,2.60
2016,03,29,03,46,2.50
2016,03,29,03,47,2.50
2016,03,29,03,48,2.50
2016,03,29,03,49,2.50
2016,03,29,03,50,2.50
2016,03,29,03,51,2.50
2016,03,29,03,52,2.50
2016,03,29,03,53,2.50
2016,03,29,03,54,2.50
2016,03,29,03,55,2.40
2016,03,29,03,56,2.50
2016,03,29,03,57,2.50
2016,03,29,03,58,2.50
2016,03,29,03,59,2.50
2016,03,29,04,00,2.50
2016,03,29,04,01,2.40
2016,03,29,04,02,2.40
2016,03,29,04,03,2.40
2016,03,29,04,04,2.30
2016,03,29,04,05,2.30
2016,03,29,04,06,2.30
2016,03,29,04,07,2.30
2016,03,29,04,08,2.20
2016,03,29,04,09,2.20
2016,03,29,04,10,2.20
2016,03,29,04,11,2.20
2016,03,29,04,12,2.10
2016,03,29,04,13,2.10
2016,03,29,04,14,2.10
2016,03,29,04,15,2.10
2016,03,29,04,16,2.10
2016,03,29,04,17,2.10
2016,03,29,04,18,2.10
2016,03,29,04,19,2.10
2016,03,29,04,20,2.00
2016,03,29,04,21,2.00
2016,03,29,04,22,2.00
2016,03,29,04,23,2.00
2016,03,29,04,24,2.00
2016,03,29,04,25,2.00
2016,03,29,04,26,2.00
2016,03,29,04,27,2.00
2016,03,29,04,28,2.00
2016,03,29,04,29,2.00
2016,03,29,04,30,2.00
2016,03,29,04,31,2.00
2016,03,29,04,32,2.00
2016,03,29,04,33,2.00
2016,03,29,04,34,2.00
2016,03,29,04,35,2.00
2016,03,29,04,36,1.90
2016,03,29,04,37,2.00
2016,03,29,04,38,2.00
2016,03,29,04,39,2.00
2016,03,29,04,40,2.00
2016,03,29,04,41,2.00
2016,03,29,04,42,2.00
2016,03,29,04,43,1.90
2016,03,29,04,44,1.90
2016,03,29,04,45,1.90
2016,03,29,04,46,1.90
2016,03,29,04,47,1.90
2016,03,29,04,48,1.90
2016,03,29,04,49,1.80
2016,03,29,04,50,1.80
2016,03,29,04,51,1.80
2016,03,29,04,52,1.80
2016,03,29,04,53,1.80
2016,03,29,04,54,1.80
2016,03,29,04,55,1.80
2016,03,29,04,56,1.80
2016,03,29,04,57,1.80
2016,03,29,04,58,1.70
2016,03,29,04,59,1.70
2016,03,29,05,00,1.70
2016,03,29,05,01,1.70
2016,03,29,05,02,1.70
2016,03,29,05,03,1.70
2016,03,29,05,04,1.70
2016,03,29,05,05,1.70
2016,03,29,05,06,1.80
2016,03,29,05,07,1.80
2016,03,29,05,08,1.80
2016,03,29,05,09,1.80
2016,03,29,05,10,1.80
2016,03,29,05,11,1.80
2016,03,29,05,12,1.80
2016,03,29,05,13,1.80
2016,03,29,05,14,1.80
2016,03,29,05,15,1.80
2016,03,29,05,16,1.80
2016,03,29,05,17,1.80
2016,03,29,05,18,1.80
2016,03,29,05,19,1.80
2016,03,29,05,20,1.80
2016,03,29,05,21,1.80
2016,03,29,05,22,1.80
2016,03,29,05,23,1.80
2016,03,29,05,24,1.80
2016,03,29,05,25,1.80
2016,03,29,05,26,1.80
2016,03,29,05,27,1.80
2016,03,29,05,28,1.80
2016,03,29,05,29,1.70
2016,03,29,05,30,1.70
2016,03,29,05,31,1.70
2016,03,29,05,32,1.70
2016,03,29,05,33,1.70
2016,03,29,05,34,1.70
2016,03,29,05,35,1.70
2016,03,29,05,36,1.70
2016,03,29,05,37,1.60
2016,03,29,05,38,1.60
2016,03,29,05,39,1.60
2016,03,29,05,40,1.60
2016,03,29,05,41,1.60
2016,03,29,05,42,1.60
2016,03,29,05,43,1.60
2016,03,29,05,44,1.60
2016,03,29,05,45,1.60
2016,03,29,05,46,1.60
2016,03,29,05,47,1.60
2016,03,29,05,48,1.60
2016,03,29,05,49,1.60
2016,03,29,05,50,1.60
2016,03,29,05,51,1.60
2016,03,29,05,52,1.60
2016,03,29,05,53,1.60
2016,03,29,05,54,1.60
2016,03,29,05,55,1.60
2016,03,29,05,56,1.60
2016,03,29,05,57,1.60
2016,03,29,05,58,1.60
2016,03,29,05,59,1.60
2016,03,29,06,00,1.60
2016,03,29,06,01,1.60
2016,03,29,06,02,1.60
2016,03,29,06,03,1.50
2016,03,29,06,04,1.50
2016,03,29,06,05,1.50
2016,03,29,06,06,1.50
2016,03,29,06,07,1.40
2016,03,29,06,08,1.40
2016,03,29,06,09,1.40
2016,03,29,06,10,1.40
2016,03,29,06,11,1.40
2016,03,29,06,12,1.40
2016,03,29,06,13,1.40
2016,03,29,06,14,1.50
2016,03,29,06,15,1.50
2016,03,29,06,16,1.60
2016,03,29,06,17,1.60
2016,03,29,06,18,1.60
2016,03,29,06,19,1.60
2016,03,29,06,20,1.60
2016,03,29,06,21,1.60
2016,03,29,06,22,1.60
2016,03,29,06,23,1.60
2016,03,29,06,24,1.60
2016,03,29,06,25,1.60
2016,03,29,06,26,1.60
2016,03,29,06,27,1.60
2016,03,29,06,28,1.60
2016,03,29,06,29,1.60
2016,03,29,06,30,1.70
2016,03,29,06,31,1.70
2016,03,29,06,32,1.70
2016,03,29,06,33,1.70
2016,03,29,06,34,1.80
2016,03,29,06,35,1.80
2016,03,29,06,36,1.80
2016,03,29,06,37,1.80
2016,03,29,06,38,1.80
2016,03,29,06,39,1.80
2016,03,29,06,40,1.70
2016,03,29,06,41,1.70
2016,03,29,06,42,1.70
2016,03,29,06,43,1.60
2016,03,29,06,44,1.60
2016,03,29,06,45,1.60
2016,03,29,06,46,1.50
2016,03,29,06,47,1.50
2016,03,29,06,48,1.40
2016,03,29,06,49,1.40
2016,03,29,06,50,1.40
2016,03,29,06,51,1.40
2016,03,29,06,52,1.40
2016,03,29,06,53,1.40
2016,03,29,06,54,1.40
2016,03,29,06,55,1.40
2016,03,29,06,56,1.40
2016,03,29,06,57,1.40
2016,03,29,06,58,1.50
2016,03,29,06,59,1.50
2016,03,29,07,00,1.60
2016,03,29,07,01,1.60
2016,03,29,07,02,1.60
2016,03,29,07,03,1.60
2016,03,29,07,04,1.60
2016,03,29,07,05,1.60
2016,03,29,07,06,1.60
2016,03,29,07,07,1.50
2016,03,29,07,08,1.50
2016,03,29,07,09,1.50
2016,03,29,07,10,1.40
2016,03,29,07,11,1.40
2016,03,29,07,12,1.40
2016,03,29,07,13,1.40
2016,03,29,07,14,1.40
2016,03,29,07,15,1.50
2016,03,29,07,16,1.50
2016,03,29,07,17,1.60
2016,03,29,07,18,1.70
2016,03,29,07,19,1.70
2016,03,29,07,20,1.70
2016,03,29,07,21,1.70
2016,03,29,07,22,1.70
2016,03,29,07,23,1.70
2016,03,29,07,24,1.70
2016,03,29,07,25,1.70
2016,03,29,07,26,1.70
2016,03,29,07,27,1.70
2016,03,29,07,28,1.60
2016,03,29,07,29,1.60
2016,03,29,07,30,1.60
2016,03,29,07,31,1.60
2016,03,29,07,32,1.60
2016,03,29,07,33,1.60
2016,03,29,07,34,1.60
2016,03,29,07,35,1.60
2016,03,29,07,36,1.60
2016,03,29,07,37,1.60
2016,03,29,07,38,1.60
2016,03,29,07,39,1.60
2016,03,29,07,40,1.60
2016,03,29,07,41,1.60
2016,03,29,07,42,1.60
2016,03,29,07,43,1.60
2016,03,29,07,44,1.60
2016,03,29,07,45,1.60
2016,03,29,07,46,1.60
2016,03,29,07,47,1.60
2016,03,29,07,48,1.60
2016,03,29,07,49,1.60
2016,03,29,07,50,1.60
2016,03,29,07,51,1.60
2016,03,29,07,52,1.60
2016,03,29,07,53,1.60
2016,03,29,07,54,1.60
2016,03,29,07,55,1.60
2016,03,29,07,56,1.60
2016,03,29,07,57,1.70
2016,03,29,07,58,1.70
2016,03,29,07,59,1.80
2016,03,29,08,00,1.80
2016,03,29,08,01,1.80
2016,03,29,08,02,1.90
2016,03,29,08,03,1.90
2016,03,29,08,04,1.90
2016,03,29,08,05,1.90
2016,03,29,08,06,1.90
2016,03,29,08,07,1.90
2016,03,29,08,08,1.90
2016,03,29,08,09,2.00
2016,03,29,08,10,2.00
2016,03,29,08,11,2.00
2016,03,29,08,12,2.00
2016,03,29,08,13,2.00
2016,03,29,08,14,2.10
2016,03,29,08,15,2.10
2016,03,29,08,16,2.10
2016,03,29,08,17,2.20
2016,03,29,08,18,2.20
2016,03,29,08,19,2.30
2016,03,29,08,20,2.30
2016,03,29,08,21,2.40
2016,03,29,08,22,2.40
2016,03,29,08,23,2.50
2016,03,29,08,24,2.60
2016,03,29,08,25,2.60
2016,03,29,08,26,2.70
2016,03,29,08,27,2.70
2016,03,29,08,28,2.70
2016,03,29,08,29,2.80
2016,03,29,08,30,2.80
2016,03,29,08,31,2.80
2016,03,29,08,32,2.80
2016,03,29,08,33,2.80
2016,03,29,08,34,2.80
2016,03,29,08,35,2.80
2016,03,29,08,36,2.80
2016,03,29,08,37,2.80
2016,03,29,08,38,2.80
2016,03,29,08,39,2.80
2016,03,29,08,40,2.90
2016,03,29,08,41,2.90
2016,03,29,08,42,2.90
2016,03,29,08,43,3.00
2016,03,29,08,44,3.00
2016,03,29,08,45,3.00
2016,03,29,08,46,3.10
2016,03,29,08,47,3.10
2016,03,29,08,48,3.20
2016,03,29,08,49,3.20
2016,03,29,08,50,3.30
2016,03,29,08,51,3.30
2016,03,29,08,52,3.30
2016,03,29,08,53,3.40
2016,03,29,08,54,3.50
2016,03,29,08,55,3.50
2016,03,29,08,56,3.60
2016,03,29,08,57,3.70
2016,03,29,08,58,3.70
2016,03,29,08,59,3.80
2016,03,29,09,00,3.90
2016,03,29,09,01,3.90
2016,03,29,09,02,4.00
2016,03,29,09,03,4.10
2016,03,29,09,04,4.20
2016,03,29,09,05,4.30
2016,03,29,09,06,4.30
2016,03,29,09,07,4.40
2016,03,29,09,08,4.50
2016,03,29,09,09,4.60
2016,03,29,09,10,4.60
2016,03,29,09,11,4.70
2016,03,29,09,12,4.80
2016,03,29,09,13,4.90
2016,03,29,09,14,5.00
2016,03,29,09,15,5.10
2016,03,29,09,16,5.20
2016,03,29,09,17,5.30
2016,03,29,09,18,5.40
2016,03,29,09,19,5.50
2016,03,29,09,20,5.60
2016,03,29,09,21,5.70
2016,03,29,09,22,5.80
2016,03,29,09,23,5.80
2016,03,29,09,24,5.80
2016,03,29,09,25,5.90
2016,03,29,09,26,6.00
2016,03,29,09,27,6.00
2016,03,29,09,28,6.10
2016,03,29,09,29,6.20
2016,03,29,09,30,6.20
2016,03,29,09,31,6.30
2016,03,29,09,32,6.30
2016,03,29,09,33,6.40
2016,03,29,09,34,6.40
2016,03,29,09,35,6.50
2016,03,29,09,36,6.60
2016,03,29,09,37,6.60
2016,03,29,09,38,6.60
2016,03,29,09,39,6.60
2016,03,29,09,40,6.70
2016,03,29,09,41,6.70
2016,03,29,09,42,6.80
2016,03,29,09,43,6.90
2016,03,29,09,44,7.00
2016,03,29,09,45,7.10
2016,03,29,09,46,7.20
2016,03,29,09,47,7.20
2016,03,29,09,48,7.30
2016,03,29,09,49,7.30
2016,03,29,09,50,7.40
2016,03,29,09,51,7.50
2016,03,29,09,52,7.50
2016,03,29,09,53,7.60
2016,03,29,09,54,7.70
2016,03,29,09,55,7.80
2016,03,29,09,56,7.80
2016,03,29,09,57,7.90
2016,03,29,09,58,8.00
2016,03,29,09,59,8.00
2016,03,29,10,00,8.10
2016,03,29,10,01,8.10
2016,03,29,10,02,8.20
2016,03,29,10,03,8.20
2016,03,29,10,04,8.30
2016,03,29,10,05,8.30
2016,03,29,10,06,8.40
2016,03,29,10,07,8.50
2016,03,29,10,08,8.50
2016,03,29,10,09,8.60
2016,03,29,10,10,8.70
2016,03,29,10,11,8.70
2016,03,29,10,12,8.80
2016,03,29,10,13,8.90
2016,03,29,10,14,9.00
2016,03,29,10,15,9.00
2016,03,29,10,16,9.10
2016,03,29,10,17,9.20
2016,03,29,10,18,9.20
2016,03,29,10,19,9.30
2016,03,29,10,20,9.40
2016,03,29,10,21,9.40
2016,03,29,10,22,9.40
2016,03,29,10,23,9.50
2016,03,29,10,24,9.50
2016,03,29,10,25,9.50
2016,03,29,10,26,9.50
2016,03,29,10,27,9.50
2016,03,29,10,28,9.50
2016,03,29,10,29,9.60
2016,03,29,10,30,9.60
2016,03,29,10,31,9.70
2016,03,29,10,32,9.80
2016,03,29,10,33,9.90
2016,03,29,10,34,9.90
2016,03,29,10,35,10.10
2016,03,29,10,36,10.20
2016,03,29,10,37,10.40
2016,03,29,10,38,10.50
2016,03,29,10,39,10.70
2016,03,29,10,40,10.70
2016,03,29,10,41,10.80
2016,03,29,10,42,10.80
2016,03,29,10,43,10.90
2016,03,29,10,44,11.00
2016,03,29,10,45,11.10
2016,03,29,10,46,11.20
2016,03,29,10,47,11.20
2016,03,29,10,48,11.30
2016,03,29,10,49,11.40
2016,03,29,10,50,11.50
2016,03,29,10,51,11.70
2016,03,29,10,52,11.80
2016,03,29,10,53,12.00
2016,03,29,10,54,12.00
2016,03,29,10,55,12.10
2016,03,29,10,56,12.10
2016,03,29,10,57,12.20
2016,03,29,10,58,12.30
2016,03,29,10,59,12.30
2016,03,29,11,00,12.40
2016,03,29,11,01,12.50
2016,03,29,11,02,12.60
2016,03,29,11,03,12.60
2016,03,29,11,04,12.60
2016,03,29,11,05,12.60
2016,03,29,11,06,12.60
2016,03,29,11,07,12.60
2016,03,29,11,08,12.60
2016,03,29,11,09,12.60
2016,03,29,11,10,12.70
2016,03,29,11,11,12.70
2016,03,29,11,12,12.80
2016,03,29,11,13,12.80
2016,03,29,11,14,12.80
2016,03,29,11,15,12.80
2016,03,29,11,16,12.70
2016,03,29,11,17,12.70
2016,03,29,11,18,12.60
2016,03,29,11,19,12.60
2016,03,29,11,20,12.60
2016,03,29,11,21,12.60
2016,03,29,11,22,12.60
2016,03,29,11,23,12.70
2016,03,29,11,24,12.70
2016,03,29,11,25,12.70
2016,03,29,11,26,12.70
2016,03,29,11,27,12.70
2016,03,29,11,28,12.70
2016,03,29,11,29,12.70
2016,03,29,11,30,12.60
2016,03,29,11,31,12.60
2016,03,29,11,32,12.50
2016,03,29,11,33,12.50
2016,03,29,11,34,12.50
2016,03,29,11,35,12.50
2016,03,29,11,36,12.40
2016,03,29,11,37,12.40
2016,03,29,11,38,12.30
2016,03,29,11,39,12.20
2016,03,29,11,40,12.10
2016,03,29,11,41,12.10
2016,03,29,11,42,12.00
2016,03,29,11,43,11.90
2016,03,29,11,44,11.80
2016,03,29,11,45,11.80
2016,03,29,11,46,11.80
2016,03,29,11,47,11.80
2016,03,29,11,48,11.70
2016,03,29,11,49,11.80
2016,03,29,11,50,11.80
2016,03,29,11,51,11.80
2016,03,29,11,52,11.90
2016,03,29,11,53,11.90
2016,03,29,11,54,11.90
2016,03,29,11,55,11.90
2016,03,29,11,56,11.90
2016,03,29,11,57,12.00
2016,03,29,11,58,12.00
2016,03,29,11,59,12.10
2016,03,29,12,00,12.20
2016,03,29,12,01,12.20
2016,03,29,12,02,12.20
2016,03,29,12,03,12.20
2016,03,29,12,04,12.20
2016,03,29,12,05,12.30
2016,03,29,12,06,12.40
2016,03,29,12,07,12.50
2016,03,29,12,08,12.60
2016,03,29,12,09,12.70
2016,03,29,12,10,12.80
2016,03,29,12,11,12.90
2016,03,29,12,12,13.00
2016,03,29,12,13,13.10
2016,03,29,12,14,13.30
2016,03,29,12,15,13.30
2016,03,29,12,16,13.40
2016,03,29,12,17,13.60
2016,03,29,12,18,13.70
2016,03,29,12,19,13.80
2016,03,29,12,20,13.90
2016,03,29,12,21,14.10
2016,03,29,12,22,14.10
2016,03,29,12,23,14.20
2016,03,29,12,24,14.30
2016,03,29,12,25,14.20
2016,03,29,12,26,14.20
2016,03,29,12,27,14.20
2016,03,29,12,28,14.30
2016,03,29,12,29,14.30
2016,03,29,12,30,14.30
2016,03,29,12,31,14.30
2016,03,29,12,32,14.30
2016,03,29,12,33,14.30
2016,03,29,12,34,14.30
2016,03,29,12,35,14.20
2016,03,29,12,36,14.10
2016,03,29,12,37,14.10
2016,03,29,12,38,14.10
2016,03,29,12,39,14.10
2016,03,29,12,40,14.20
2016,03,29,12,41,14.20
2016,03,29,12,42,14.20
2016,03,29,12,43,14.10
2016,03,29,12,44,14.10
2016,03,29,12,45,14.10
2016,03,29,12,46,14.10
2016,03,29,12,47,14.00
2016,03,29,12,48,14.10
2016,03,29,12,49,14.10
2016,03,29,12,50,14.10
2016,03,29,12,51,14.20
2016,03,29,12,52,14.30
2016,03,29,12,53,14.30
2016,03,29,12,54,14.30
2016,03,29,12,55,14.30
2016,03,29,12,56,14.30
2016,03,29,12,57,14.30
2016,03,29,12,58,14.30
2016,03,29,12,59,14.30
2016,03,29,13,00,14.30
2016,03,29,13,01,14.30
2016,03,29,13,02,14.30
2016,03,29,13,03,14.20
2016,03,29,13,04,14.20
2016,03,29,13,05,14.20
2016,03,29,13,06,14.20
2016,03,29,13,07,14.20
2016,03,29,13,08,14.10
2016,03,29,13,09,14.10
2016,03,29,13,10,14.10
2016,03,29,13,11,14.10
2016,03,29,13,12,14.10
2016,03,29,13,13,14.10
2016,03,29,13,14,14.20
2016,03,29,13,15,14.30
2016,03,29,13,16,14.30
2016,03,29,13,17,14.20
2016,03,29,13,18,14.20
2016,03,29,13,19,14.20
2016,03,29,13,20,14.20
2016,03,29,13,21,14.20
2016,03,29,13,22,14.20
2016,03,29,13,23,14.20
2016,03,29,13,24,14.20
2016,03,29,13,25,14.20
2016,03,29,13,26,14.20
2016,03,29,13,27,14.20
2016,03,29,13,28,14.20
2016,03,29,13,29,14.20
2016,03,29,13,30,14.20
2016,03,29,13,31,14.10
2016,03,29,13,32,14.10
2016,03,29,13,33,14.10
2016,03,29,13,34,14.10
2016,03,29,13,35,14.10
2016,03,29,13,36,14.10
2016,03,29,13,37,14.10
2016,03,29,13,38,14.10
2016,03,29,13,39,14.10
2016,03,29,13,40,14.00
2016,03,29,13,41,13.90
2016,03,29,13,42,13.90
2016,03,29,13,43,13.90
2016,03,29,13,44,13.90
2016,03,29,13,45,13.90
2016,03,29,13,46,13.90
2016,03,29,13,47,13.90
2016,03,29,13,48,13.90
2016,03,29,13,49,13.90
2016,03,29,13,50,13.90
2016,03,29,13,51,13.90
2016,03,29,13,52,13.80
2016,03,29,13,53,13.70
2016,03,29,13,54,13.60
2016,03,29,13,55,13.50
2016,03,29,13,56,13.40
2016,03,29,13,57,13.30
2016,03,29,13,58,13.20
2016,03,29,13,59,13.20
2016,03,29,14,00,13.10
2016,03,29,14,01,13.10
2016,03,29,14,02,13.10
2016,03,29,14,03,13.10
2016,03,29,14,04,13.00
2016,03,29,14,05,13.00
2016,03,29,14,06,12.90
2016,03,29,14,07,12.90
2016,03,29,14,08,12.90
2016,03,29,14,09,12.90
2016,03,29,14,10,12.90
2016,03,29,14,11,12.90
2016,03,29,14,12,12.90
2016,03,29,14,13,12.90
2016,03,29,14,14,12.90
2016,03,29,14,15,12.90
2016,03,29,14,16,13.00
2016,03,29,14,17,13.00
2016,03,29,14,18,13.10
2016,03,29,14,19,13.10
2016,03,29,14,20,13.10
2016,03,29,14,21,13.10
2016,03,29,14,22,13.10
2016,03,29,14,23,13.20
2016,03,29,14,24,13.30
2016,03,29,14,25,13.30
2016,03,29,14,26,13.40
2016,03,29,14,27,13.50
2016,03,29,14,28,13.50
2016,03,29,14,29,13.60
2016,03,29,14,30,13.60
2016,03,29,14,31,13.60
2016,03,29,14,32,13.60
2016,03,29,14,33,13.60
2016,03,29,14,34,13.70
2016,03,29,14,35,13.70
2016,03,29,14,36,13.70
2016,03,29,14,37,13.80
2016,03,29,14,38,13.90
2016,03,29,14,39,13.90
2016,03,29,14,40,14.00
2016,03,29,14,41,14.10
2016,03,29,14,42,14.20
2016,03,29,14,43,14.20
2016,03,29,14,44,14.20
2016,03,29,14,45,14.30
2016,03,29,14,46,14.30
2016,03,29,14,47,14.30
2016,03,29,14,48,14.20
2016,03,29,14,49,14.20
2016,03,29,14,50,14.20
2016,03,29,14,51,14.20
2016,03,29,14,52,14.10
2016,03,29,14,53,14.10
2016,03,29,14,54,14.10
2016,03,29,14,55,14.00
2016,03,29,14,56,14.00
2016,03,29,14,57,13.90
2016,03,29,14,58,13.90
2016,03,29,14,59,13.90
2016,03,29,15,00,14.00
2016,03,29,15,01,14.00
2016,03,29,15,02,14.00
2016,03,29,15,03,14.00
2016,03,29,15,04,14.10
2016,03,29,15,05,14.10
2016,03,29,15,06,14.20
2016,03,29,15,07,14.20
2016,03,29,15,08,14.20
2016,03,29,15,09,14.20
2016,03,29,15,10,14.20
2016,03,29,15,11,14.20
2016,03,29,15,12,14.20
2016,03,29,15,13,14.20
2016,03,29,15,14,14.10
2016,03,29,15,15,14.10
2016,03,29,15,16,14.10
2016,03,29,15,17,14.10
2016,03,29,15,18,14.10
2016,03,29,15,19,14.10
2016,03,29,15,20,14.10
2016,03,29,15,21,14.10
2016,03,29,15,22,14.20
2016,03,29,15,23,14.20
2016,03,29,15,24,14.20
2016,03,29,15,25,14.20
2016,03,29,15,26,14.10
2016,03,29,15,27,14.10
2016,03,29,15,28,14.10
2016,03,29,15,29,14.10
2016,03,29,15,30,14.10
2016,03,29,15,31,14.10
2016,03,29,15,32,14.00
2016,03,29,15,33,13.90
2016,03,29,15,34,13.80
2016,03,29,15,35,13.80
2016,03,29,15,36,13.80
2016,03,29,15,37,13.80
2016,03,29,15,38,13.80
2016,03,29,15,39,13.80
2016,03,29,15,40,13.80
2016,03,29,15,41,13.90
2016,03,29,15,42,14.00
2016,03,29,15,43,14.00
2016,03,29,15,44,14.10
2016,03,29,15,45,14.20
2016,03,29,15,46,14.20
2016,03,29,15,47,14.20
2016,03,29,15,48,14.30
2016,03,29,15,49,14.30
2016,03,29,15,50,14.40
2016,03,29,15,51,14.40
2016,03,29,15,52,14.50
2016,03,29,15,53,14.50
2016,03,29,15,54,14.50
2016,03,29,15,55,14.40
2016,03,29,15,56,14.40
2016,03,29,15,57,14.40
2016,03,29,15,58,14.30
2016,03,29,15,59,14.20
2016,03,29,16,00,14.20
2016,03,29,16,01,14.20
2016,03,29,16,02,14.10
2016,03,29,16,03,14.10
2016,03,29,16,04,14.00
2016,03,29,16,05,13.90
2016,03,29,16,06,13.90
2016,03,29,16,07,13.90
2016,03,29,16,08,13.90
2016,03,29,16,09,13.90
2016,03,29,16,10,13.90
2016,03,29,16,11,13.90
2016,03,29,16,12,14.00
2016,03,29,16,13,14.00
2016,03,29,16,14,14.10
2016,03,29,16,15,14.10
2016,03,29,16,16,14.10
2016,03,29,16,17,14.10
2016,03,29,16,18,14.10
2016,03,29,16,19,14.10
2016,03,29,16,20,14.10
2016,03,29,16,21,14.20
2016,03,29,16,22,14.20
2016,03,29,16,23,14.20
2016,03,29,16,24,14.20
2016,03,29,16,25,14.20
2016,03,29,16,26,14.20
2016,03,29,16,27,14.20
2016,03,29,16,28,14.20
2016,03,29,16,29,14.20
2016,03,29,16,30,14.20
2016,03,29,16,31,14.30
2016,03,29,16,32,14.30
2016,03,29,16,33,14.30
2016,03,29,16,34,14.30
2016,03,29,16,35,14.40
2016,03,29,16,36,14.40
2016,03,29,16,37,14.50
2016,03,29,16,38,14.50
2016,03,29,16,39,14.40
2016,03,29,16,40,14.40
2016,03,29,16,41,14.40
2016,03,29,16,42,14.50
2016,03,29,16,43,14.50
2016,03,29,16,44,14.50
2016,03,29,16,45,14.50
2016,03,29,16,46,14.50
2016,03,29,16,47,14.60
2016,03,29,16,48,14.60
2016,03,29,16,49,14.60
2016,03,29,16,50,14.60
2016,03,29,16,51,14.60
2016,03,29,16,52,14.60
2016,03,29,16,53,14.60
2016,03,29,16,54,14.60
2016,03,29,16,55,14.50
2016,03,29,16,56,14.50
2016,03,29,16,57,14.40
2016,03,29,16,58,14.40
2016,03,29,16,59,14.40
2016,03,29,17,00,14.40
2016,03,29,17,01,14.40
2016,03,29,17,02,14.40
2016,03,29,17,03,14.40
2016,03,29,17,04,14.50
2016,03,29,17,05,14.50
2016,03,29,17,06,14.60
2016,03,29,17,07,14.50
2016,03,29,17,08,14.50
2016,03,29,17,09,14.40
2016,03,29,17,10,14.30
2016,03,29,17,11,14.20
2016,03,29,17,12,14.20
2016,03,29,17,13,14.20
2016,03,29,17,14,14.20
2016,03,29,17,15,14.20
2016,03,29,17,16,14.20
2016,03,29,17,17,14.20
2016,03,29,17,18,14.20
2016,03,29,17,19,14.20
2016,03,29,17,20,14.20
2016,03,29,17,21,14.20
2016,03,29,17,22,14.20
2016,03,29,17,23,14.10
2016,03,29,17,24,14.10
2016,03,29,17,25,14.10
2016,03,29,17,26,14.10
2016,03,29,17,27,14.10
2016,03,29,17,28,14.10
2016,03,29,17,29,14.00
2016,03,29,17,30,14.00
2016,03,29,17,31,14.00
2016,03,29,17,32,14.00
2016,03,29,17,33,14.00
2016,03,29,17,34,14.00
2016,03,29,17,35,13.90
2016,03,29,17,36,13.90
2016,03,29,17,37,13.90
2016,03,29,17,38,13.90
2016,03,29,17,39,14.00
2016,03,29,17,40,14.00
2016,03,29,17,41,14.00
2016,03,29,17,42,14.10
2016,03,29,17,43,14.10
2016,03,29,17,44,14.10
2016,03,29,17,45,14.10
2016,03,29,17,46,14.10
2016,03,29,17,47,14.10
2016,03,29,17,48,14.10
2016,03,29,17,49,14.10
2016,03,29,17,50,14.10